Vorticity
4 4 4 4 3 3 3 3 3 3 3 3 3 4 4 4 4 4 4 4 4 4 3 3 3 3 2 2 3 3 3 4 4 5 5 5 5 4 4 4 4 4 3 3 3 4 3 3 4 4 4 5 6 7 8 9 9 10 10 10 9 7 6 6 6 6 8 9 11 13 14 14 14 13 12 10 7 5 4 5 6 7 8 9 10 10 10 9 8 7 6 6 6 5 5 5 4 4 3 2 2 2 3
4 3 3 3 3 3 3 3 3 3 3 3 3 4 4 4 4 4 4 4 4 4 4 4 3 3 3 2 2 2 2 3 3 4 4 4 4 4 4 4 3 3 3 3 3 3 3 3 3 3 3 4 4 5 6 7 8 9 9 10 9 9 8 6 6 5 6 7 9 11 12 13 14 14 13 12 11 8 4 4 5 6 7 7 8 9 11 11 10 8 6 5 5 4 4 4 4 3 3 2 2 2 2
3 3 3 3 3 3 3 3 3 3 3 3 4 4 4 4 4 4 4 4 5 4 4 4 4 4 3 3 3 3 2 2 2 2 3 3 3 3 4 4 3 3 3 3 3 3 3 3 3 3 3 3 3 4 4 5 6 7 8 9 9 9 9 8 7 6 5 6 7 8 10 12 13 14 14 13 12 11 7 4 3 3 5 5 6 7 8 8 8 7 6 5 4 4 4 5 6 6 5 3 2 2 2
3 3 3 3 3 3 3 3 3 3 3 3 4 4 4 4 4 5 5 5 5 5 5 5 5 4 4 4 4 3 3 3 2 2 2 2 2 2 2 3 3 3 3 3 3 3 3 3 3 3 3 3 3 3 3 3 4 5 6 7 8 9 10 9 8 7 6 5 5 6 7 9 11 12 14 14 13 12 11 7 4 2 2 3 5 5 6 7 7 8 7 6 5 5 5 7 8 10 9 7 4 3 2
4 3 3 3 3 3 3 3 3 3 3 3 4 4 4 5 5 5 5 5 5 5 5 5 5 5 5 5 4 4 4 3 3 2 2 2 1 1 1 2 2 3 3 3 4 3 3 3 3 3 3 3 3 3 3 3 3 4 4 5 7 8 9 9 9 9 8 6 6 5 6 7 8 10 12 13 13 13 13 11 8 4 1 1 3 4 5 6 7 8 9 9 8 7 7 8 9 10 11 10 8 6 4
4 4 3 3 3 3 3 3 3 3 3 4 4 4 4 4 5 5 5 5 5 5 5 6 6 6 5 5 5 5 4 4 4 3 3 2 2 1 1 1 1 2 2 3 3 4 4 4 4 4 4 3 3 3 3 3 3 3 3 4 5 6 7 9 9 10 9 8 7 6 5 6 6 8 9 11 12 13 13 13 12 10 6 2 2 3 5 6 7 8 9 10 10 9 8 8 9 9 9 10 10 8 6
4 4 3 3 3 3 3 3 3 3 4 4 4 4 4 4 5 5 5 5 5 5 5 6 6 6 5 5 5 4 4 4 4 4 4 3 3 3 2 1 1 1 1 2 3 3 4 4 5 5 5 5 5 4 4 4 3 3 3 3 4 5 6 7 8 9 10 9 8 7 6 5 5 6 7 9 11 12 13 14 14 13 12 7 4 2 3 6 7 8 8 9 10 10 10 10 9 8 8 9 10 10 8
4 4 4 3 3 3 3 3 3 3 4 4 4 4 4 4 5 5 5 5 5 5 5 5 5 5 5 4 4 4 4 4 4 4 4 4 4 3 3 3 2 2 2 2 2 3 4 4 5 5 6 6 6 5 5 5 4 4 4 3 3 4 4 6 7 8 9 9 9 8 7 6 6 5 6 7 9 10 12 13 14 14 13 12 8 5 2 4 7 8 9 9 9 10 10 10 9 8 7 8 9 10 10
4 4 4 4 3 3 3 3 3 3 3 4 4 4 4 4 5 5 5 5 5 5 5 5 5 5 4 4 3 3 3 3 3 3 3 3 3 4 4 4 4 4 3 3 3 4 4 4 5 6 6 6 7 7 7 6 5 5 4 4 4 4 4 5 6 7 8 9 9 9 9 8 7 6 5 6 7 8 10 11 13 14 13 13 12 9 4 3 5 8 10 9 9 8 9 9 8 7 7 7 8 9 10
5 4 4 4 3 3 3 3 3 3 3 3 4 4 4 4 5 5 5 5 5 5 5 5 5 4 4 3 3 3 2 2 2 2 3 3 3 3 4 4 5 5 5 5 5 5 5 5 6 6 7 7 7 8 8 7 7 6 5 5 4 4 4 4 5 6 7 8 9 9 9 9 8 7 6 6 6 6 7 9 11 12 13 13 13 12 10 4 3 5 8 10 10 9 8 8 8 7 6 6 7 7 8
5 5 5 4 4 3 3 3 3 3 3 4 4 4 4 5 5 5 5 5 5 5 5 5 4 4 3 3 3 2 2 2 2 2 2 2 3 3 4 5 5 6 6 6 6 6 7 6 7 7 7 7 8 8 8 8 7 7 7 6 5 5 4 4 5 5 5 6 7 8 9 9 9 8 7 6 6 6 6 7 8 10 12 13 13 13 12 8 4 3 5 8 10 11 10 9 8 8 7 6 6 6 6
6 6 5 5 4 4 4 3 4 4 4 4 4 4 4 5 5 5 6 5 5 5 5 4 4 4 3 3 3 2 2 2 2 2 2 2 3 4 4 5 6 6 7 7 7 7 8 8 8 8 8 8 8 8 8 8 8 8 7 7 6 5 5 5 5 5 5 6 6 7 8 9 9 9 8 7 6 6 6 6 6 7 9 11 13 13 13 12 9 5 3 3 6 10 13 11 10 8 9 8 7 6 6
7 6 6 5 5 4 4 4 4 4 4 4 5 5 5 5 5 6 6 6 6 5 5 4 4 4 3 3 3 2 2 2 2 2 3 3 4 4 5 6 6 7 7 7 8 8 8 8 8 8 8 8 8 8 7 7 7 8 8 7 7 6 6 5 5 5 5 5 6 6 7 8 9 9 9 8 7 6 6 6 6 6 7 8 10 12 14 14 13 10 5 3 6 11 15 14 12 10 9 9 8 8 7
8 7 7 6 5 5 4 4 4 4 5 5 5 5 5 6 6 6 6 6 6 5 5 4 4 3 3 3 3 2 2 2 3 3 3 4 5 5 6 6 7 7 7 8 8 8 8 8 8 8 8 8 8 8 7 7 7 7 7 7 7 7 6 6 5 5 5 5 6 6 6 7 8 9 9 9 8 7 6 6 6 6 6 6 8 10 12 13 14 13 11 12 17 19 14 14 14 13 10 9 9 9 8
8 8 7 7 6 6 5 5 5 5 5 5 5 6 6 6 6 6 6 6 5 5 4 4 3 3 3 3 3 3 3 3 3 4 4 5 6 6 6 7 7 7 7 8 8 8 8 8 8 8 8 8 8 8 7 7 7 7 7 7 7 7 7 6 6 6 5 6 6 6 6 6 7 8 9 9 8 8 7 7 6 6 6 6 6 7 9 12 13 14 16 21 25 21 5 10 13 14 11 10 9 9 10
9 9 8 8 7 6 6 5 5 5 5 5 6 6 6 6 6 6 6 6 5 5 4 3 3 3 3 3 3 3 3 4 4 5 5 6 6 7 7 7 7 7 7 8 8 8 8 8 8 8 8 8 8 8 8 7 7 6 6 6 7 7 7 7 6 6 6 6 6 6 6 6 6 7 8 8 9 8 8 7 7 6 6 6 5 6 7 9 11 13 16 16 12 3 -10 3 10 12 11 10 9 9 10
10 10 10 9 8 8 7 6 6 6 6 6 6 6 6 6 6 6 6 5 5 4 4 3 3 3 3 3 3 3 4 5 5 6 6 7 7 7 7 7 7 7 7 8 8 8 8 8 8 8 8 8 8 8 8 7 7 6 6 6 6 6 7 7 7 6 6 6 6 6 6 6 6 6 7 8 8 8 8 8 7 7 6 6 6 6 6 7 8 11 14 8 -3 -13 -16 -1 5 7 8 9 9 9 9
11 11 11 11 10 10 9 8 8 7 7 7 7 7 7 7 6 6 6 5 5 4 4 3 3 3 3 3 4 5 5 6 6 7 7 7 7 7 7 7 8 8 8 8 8 8 8 9 9 9 9 8 8 8 8 8 7 7 7 6 6 6 6 6 7 7 6 6 6 6 6 6 6 6 6 7 8 8 8 8 8 7 7 7 6 6 6 6 6 8 12 10 3 -3 -4 2 4 5 5 7 8 9 10
12 12 12 12 12 11 11 11 11 10 10 9 9 8 8 7 7 6 6 5 5 4 4 4 4 4 4 5 5 6 7 7 7 7 7 7 7 8 8 8 8 8 8 8 9 9 9 9 9 9 9 9 9 9 8 8 8 8 7 7 6 6 6 6 6 7 7 6 6 6 6 6 6 6 6 6 7 7 8 8 8 8 7 7 7 7 6 6 6 6 7 10 10 8 7 7 7 6 5 6 7 9 11
13 13 13 13 13 13 13 13 13 13 12 12 11 10 10 9 8 7 7 6 5 5 5 5 5 5 6 6 7 8 8 8 8 7 7 7 7 8 8 8 8 9 9 9 9 9 9 9 9 9 9 9 9 9 9 9 8 8 8 7 7 7 6 6 6 6 7 7 6 6 6 6 6 6 6 6 6 7 7 8 8 8 7 7 7 7 7 6 6 6 6 7 9 10 11 10 9 8 7 6 6 7 10
14 14 14 14 14 14 14 14 14 14 14 14 13 12 12 11 10 9 8 8 7 7 7 7 7 7 8 8 9 9 8 8 8 7 7 7 8 8 8 8 9 9 10 10 10 10 10 10 9 9 9 9 9 9 9 9 9 8 8 8 8 7 7 7 6 6 6 7 7 7 6 6 6 6 7 6 6 6 7 7 7 8 8 7 7 7 7 6 6 6 6 6 7 8 10 10 10 9 8 6 5 6 8
15 15 15 15 15 15 15 15 15 15 15 15 15 14 14 13 12 12 11 10 9 9 9 9 9 9 9 9 9 9 8 8 7 7 7 7 8 8 9 9 9 10 10 10 10 10 10 10 10 9 9 9 9 9 9 9 9 9 9 8 8 8 8 7 7 7 6 7 7 7 7 7 6 6 7 7 7 7 6 7 7 7 7 7 7 7 7 7 7 6 6 6 6 6 7 8 9 10 9 8 7 6 6
15 15 16 16 15 15 15 15 15 15 15 15 15 15 15 14 13 13 12 11 11 11 10 10 10 10 9 9 9 8 7 7 7 7 7 8 8 9 9 10 10 10 10 10 10 10 10 10 9 9 9 9 9 9 9 9 9 9 9 8 8 8 8 8 7 7 7 7 7 7 7 7 7 7 7 7 7 7 7 7 7 7 7 7 7 7 7 7 7 7 7 7 6 6 5 6 8 9 11 10 9 8 6
15 15 15 15 15 15 14 14 14 14 14 14 14 14 14 13 13 12 12 11 11 11 10 10 9 9 9 8 7 7 6 6 7 7 8 8 9 10 10 10 10 10 10 10 10 9 9 9 9 9 8 8 8 8 8 8 8 9 9 9 8 8 8 8 8 7 7 7 7 7 7 7 7 7 7 7 7 7 7 7 7 7 7 7 7 7 7 7 7 7 7 7 6 6 5 5 6 7 9 10 10 9 8
15 15 15 15 14 14 14 13 13 13 12 13 13 12 12 12 12 11 11 11 10 10 9 9 9 8 8 7 6 6 6 6 7 8 8 9 10 10 10 10 10 9 9 9 9 8 8 8 8 8 8 8 8 8 8 8 8 8 9 9 9 9 9 8 8 8 8 7 7 7 7 8 8 8 8 7 7 7 7 7 7 7 7 7 7 7 7 7 7 7 7 7 7 6 6 5 5 5 7 9 10 9 8
15 15 14 14 14 13 13 12 12 12 11 11 12 12 11 11 11 11 10 10 10 9 9 9 9 8 7 7 6 6 6 7 8 8 9 9 10 10 10 9 9 8 8 8 8 8 8 8 8 8 8 8 8 8 9 9 9 9 9 9 9 9 9 9 9 9 8 8 8 8 8 8 8 8 8 8 8 8 7 8 8 7 7 7 7 7 7 7 7 7 7 7 7 7 6 6 5 4 5 7 9 9 8
14 14 14 13 13 12 12 12 11 11 11 11 11 11 11 11 10 10 10 10 10 9 9 9 8 8 7 6 6 7 7 8 9 9 10 9 9 9 9 8 8 8 8 8 8 8 8 8 9 9 9 9 9 9 10 10 10 10 10 10 10 10 10 10 10 10 9 9 9 9 8 8 8 8 8 8 8 8 8 8 8 8 8 7 7 7 7 7 7 7 7 7 7 7 7 6 6 4 3 5 7 8 9
13 13 12 12 11 11 11 11 11 11 11 11 11 11 10 10 10 10 10 10 10 10 9 9 8 7 7 7 7 8 9 9 10 10 10 9 9 8 8 8 8 8 8 9 9 9 9 10 10 10 10 11 11 11 11 11 11 12 12 12 12 12 12 12 12 12 11 11 11 10 10 9 9 9 9 9 9 9 8 8 8 8 8 8 7 7 7 7 7 7 7 7 7 7 7 7 6 5 4 3 4 6 7
12 12 11 11 10 10 10 10 10 10 10 10 10 10 10 10 10 10 10 10 10 9 9 8 8 8 8 8 9 9 10 10 10 10 9 9 8 8 8 8 9 9 10 10 10 11 11 12 12 12 12 13 13 13 13 14 14 14 14 14 14 14 14 14 14 14 14 14 13 13 12 12 11 11 10 10 10 9 9 8 8 8 8 8 8 8 7 7 7 7 7 7 7 7 7 7 7 6 5 4 4 4 5
11 10 10 10 10 10 10 10 10 10 10 10 10 10 10 10 10 10 10 10 10 9 9 9 8 9 9 10 10 10 10 10 10 9 9 8 8 8 9 10 10 11 11 12 12 12 13 13 14 14 15 15 15 15 15 14 14 15 14 14 14 14 14 14 14 14 15 15 15 14 14 14 14 13 13 12 12 11 10 10 9 8 8 8 8 8 8 7 7 7 7 7 7 7 7 7 7 7 7 5 4 4 4
10 10 9 9 9 9 9 9 9 10 10 9 9 10 10 10 10 10 10 10 9 9 9 9 9 10 10 11 11 10 10 9 9 9 9 9 9 10 10 11 12 12 13 13 13 14 14 15 15 15 15 15 14 14 14 13 13 12 12 12 12 11 11 11 11 11 11 11 11 12 12 12 12 13 13 13 13 13 13 12 11 10 9 8 8 8 8 8 7 7 7 7 7 7 7 7 7 8 8 5 4 4 4
9 9 9 9 9 9 9 9 9 9 9 9 9 9 10 10 10 10 9 9 9 9 9 10 10 10 11 11 10 10 9 9 9 9 9 10 11 12 12 13 13 13 13 14 14 14 14 14 13 13 13 12 12 11 11 10 9 9 9 8 8 8 8 8 8 7 7 6 6 6 6 7 7 8 9 10 11 12 13 13 13 12 11 9 8 8 8 8 8 8 7 7 7 7 7 7 7 8 8 6 4 4 5
8 8 8 8 8 9 9 9 9 9 9 9 9 9 9 9 9 9 9 9 9 9 10 10 10 10 10 10 9 9 9 9 9 10 11 12 13 13 13 13 13 13 13 13 12 12 11 11 10 9 9 8 8 7 7 6 6 6 6 6 6 6 6 6 6 6 5 4 4 3 3 2 2 2 3 4 5 7 9 11 13 13 13 12 10 9 8 8 8 8 8 7 7 7 7 7 7 7 8 7 6 4 4
8 8 8 8 8 8 8 8 8 8 9 8 8 8 8 9 9 9 9 9 9 10 10 10 10 10 9 9 9 9 9 10 11 12 12 13 13 13 13 12 12 11 11 10 10 9 8 7 7 6 6 5 5 5 5 5 5 5 5 5 6 6 6 6 6 6 5 5 4 4 3 2 1 1 1 1 1 2 4 6 9 11 13 13 12 11 9 8 8 8 8 8 7 7 7 7 7 7 8 8 7 5 4
7 7 7 7 7 7 8 8 8 8 8 8 8 8 8 8 8 9 9 9 10 10 10 10 9 9 9 9 10 10 11 12 12 13 13 13 12 12 11 11 10 9 9 8 7 7 6 5 5 5 5 5 5 5 5 5 5 6 6 6 7 7 7 7 7 7 6 6 6 5 4 4 3 2 2 1 1 1 1 2 4 7 10 12 13 13 11 10 9 8 8 8 8 7 7 7 7 7 7 8 8 7 5
6 6 6 6 7 7 7 7 7 7 8 8 8 8 8 8 9 9 9 9 10 10 9 9 9 9 10 10 11 11 12 13 13 13 13 12 11 10 9 9 8 7 7 6 6 5 5 5 5 5 5 6 6 6 7 7 8 8 9 10 10 11 11 11 11 11 10 10 9 8 7 6 5 4 3 3 2 1 1 1 2 3 5 8 10 12 12 11 10 9 8 8 8 8 7 7 7 7 7 7 8 7 6
6 6 6 6 6 7 7 7 7 7 7 7 8 8 8 8 9 9 9 9 9 9 9 9 10 10 10 11 12 12 13 13 13 12 11 10 9 8 8 7 6 6 6 5 5 5 5 6 6 7 7 7 8 9 10 11 12 13 14 15 15 16 17 18 18 18 19 18 18 17 15 14 12 10 8 6 4 3 2 2 2 2 3 5 7 10 11 12 11 10 9 8 8 8 7 7 7 7 7 7 7 8 7
6 6 6 6 6 7 7 7 7 7 7 7 8 8 8 9 9 9 9 9 9 9 9 9 10 10 11 12 12 12 12 12 11 11 10 9 8 7 7 6 6 6 5 6 6 6 7 8 8 8 9 10 11 13 14 15 16 17 17 18 18 19 19 20 20 21 22 23 23 23 23 23 22 20 17 14 11 9 6 4 3 3 3 3 5 7 9 11 11 11 10 9 8 8 7 7 7 7 7 7 7 7 7
5 6 6 6 6 6 6 6 7 7 7 7 8 8 9 9 9 8 8 8 8 8 9 10 10 11 12 12 12 12 12 11 11 10 9 8 8 7 7 6 6 6 6 7 7 8 9 9 10 10 11 13 14 15 16 17 17 17 18 18 19 19 19 19 19 19 20 20 21 22 23 24 25 26 26 24 22 19 16 12 9 6 5 4 4 6 8 9 11 11 11 10 9 8 7 7 7 7 7 7 7 7 8
6 6 6 6 6 6 6 7 7 7 7 8 8 8 8 8 8 8 8 8 8 9 9 10 11 12 12 12 12 12 11 11 10 9 8 8 7 7 7 7 7 7 7 8 9 9 9 10 11 12 14 15 15 15 15 16 16 17 18 18 18 19 18 18 19 19 19 19 20 20 21 21 23 24 25 27 28 28 26 23 19 15 11 9 7 6 6 8 10 11 11 10 9 8 8 7 7 8 8 7 7 7 7
6 6 6 6 6 6 7 7 7 7 8 8 8 8 8 8 7 7 7 8 8 9 10 11 11 12 12 12 12 11 11 10 10 9 8 8 8 7 7 7 7 8 8 9 9 10 10 11 12 13 14 14 13 14 14 14 15 16 17 18 18 19 19 19 19 19 19 20 21 21 22 22 23 24 25 26 28 29 30 30 28 24 21 17 14 11 8 8 9 10 11 10 10 9 8 8 7 7 8 8 7 7 7
6 6 6 6 6 7 7 7 7 7 8 8 7 7 7 7 7 7 7 8 9 10 11 11 12 12 11 11 11 11 10 10 9 9 8 8 8 8 8 8 8 9 9 9 9 10 10 11 12 13 12 12 12 13 13 13 14 15 16 16 17 17 17 17 17 17 17 18 20 21 22 23 24 25 26 27 28 29 30 31 31 30 27 24 21 18 14 11 10 10 11 11 10 9 8 8 7 7 8 8 8 7 7
6 6 6 6 7 7 7 7 7 7 7 7 7 6 6 6 6 6 7 8 9 10 11 11 12 11 11 11 11 11 10 10 9 9 9 8 8 8 8 9 9 10 10 9 9 10 11 11 12 12 11 11 11 11 11 11 11 11 11 12 12 13 14 14 14 14 14 14 15 16 17 18 18 18 19 21 23 26 29 31 32 32 31 28 25 23 21 17 13 11 11 11 10 9 8 8 8 7 8 8 8 8 7
6 6 6 6 7 7 7 7 7 7 7 6 6 6 5 5 5 6 7 8 9 10 11 11 11 11 11 11 10 10 10 9 9 9 9 8 8 9 9 9 10 10 9 9 9 10 11 11 11 11 11 11 10 9 8 8 7 5 4 4 6 8 10 13 14 13 12 11 11 10 9 7 6 5 6 9 13 17 22 27 31 33 34 32 30 26 24 23 19 15 11 12 11 10 9 8 8 8 7 8 8 8 7
6 6 6 7 7 7 7 7 7 6 6 5 5 5 5 5 6 6 7 9 10 10 11 11 11 11 11 10 10 10 9 9 9 8 8 8 9 9 9 10 10 9 9 9 9 10 11 11 11 10 10 9 8 7 7 4 2 -1 -3 -3 -0 3 7 12 15 17 16 13 9 6 3 -1 -3 -4 -4 -0 4 9 13 18 24 29 34 36 35 32 27 26 23 20 15 13 12 11 10 9 8 8 7 8 8 8 7
6 6 7 7 7 7 7 6 6 6 5 4 4 4 5 5 6 7 8 9 10 11 11 11 11 11 10 10 9 9 9 8 8 8 8 8 8 9 9 10 9 9 8 8 8 10 12 12 11 9 7 7 6 6 5 1 -3 -6 -8 -6 -3 2 6 11 17 21 23 19 14 8 4 1 -2 -3 -3 -1 3 6 9 12 16 21 27 33 37 37 34 29 27 24 20 15 13 12 11 9 8 8 7 8 8 8 7
6 6 7 7 7 6 6 6 5 4 4 4 4 5 5 6 6 7 8 9 10 11 11 11 11 11 10 10 9 8 8 8 8 8 8 8 8 9 9 9 9 8 8 7 8 10 12 12 11 8 6 5 5 4 2 -2 -6 -9 -10 -7 -2 3 8 12 17 22 27 27 23 17 13 10 8 6 4 4 5 6 8 10 11 14 19 26 33 38 40 35 31 27 24 18 14 13 12 11 9 8 8 8 8 8 8
6 7 7 7 6 6 6 5 4 4 4 4 4 5 5 5 6 7 8 9 10 11 11 11 10 10 10 10 9 8 8 8 7 7 7 8 9 10 10 9 9 9 8 8 9 11 13 13 11 8 5 4 3 1 -2 -5 -8 -10 -10 -6 -1 5 10 13 17 21 26 28 28 25 21 18 16 13 10 8 8 8 8 9 10 11 12 18 25 34 41 41 36 31 27 21 17 13 13 12 10 9 8 8 8 8 8
6 6 7 6 6 5 5 4 4 4 4 4 4 4 5 5 6 7 8 9 10 10 11 11 10 10 10 10 9 8 8 7 7 7 7 7 9 10 12 11 10 10 9 10 11 12 14 15 13 9 5 3 0 -2 -5 -7 -10 -11 -10 -5 0 6 10 13 16 19 22 24 26 26 24 21 18 15 13 11 10 9 9 9 9 9 9 12 17 26 36 42 42 37 31 25 19 15 13 13 12 10 8 8 8 8 8
6 6 6 6 5 5 4 4 4 4 4 4 4 4 4 5 6 7 8 9 10 11 11 11 11 10 9 9 9 9 8 7 7 7 8 8 7 7 9 10 10 10 10 11 13 14 16 16 14 11 6 3 -0 -3 -5 -7 -9 -9 -9 -5 1 6 10 12 14 16 18 19 21 22 21 19 17 15 14 14 13 12 11 9 7 7 6 7 10 17 27 38 44 44 37 29 22 16 14 13 12 11 9 8 8 8 8
6 6 6 5 5 4 4 3 3 4 4 4 4 4 4 5 6 7 8 10 11 11 11 11 11 11 10 9 9 8 7 7 7 7 7 8 8 7 6 4 5 7 10 12 15 17 18 18 16 13 9 6 3 1 -1 -2 -4 -5 -4 -1 3 7 10 11 12 14 15 16 16 16 15 15 14 13 13 14 15 16 15 13 9 6 4 4 5 9 16 29 41 48 45 35 25 18 14 14 13 12 10 9 8 8 8
6 6 5 4 4 4 3 3 3 4 4 4 4 4 4 4 6 7 9 10 11 11 11 11 11 11 11 9 9 9 8 7 7 7 7 8 8 8 6 4 3 4 6 10 14 18 21 21 20 17 14 11 9 7 6 3 2 1 2 5 8 10 11 10 10 11 12 14 14 13 11 9 8 7 7 9 11 14 17 17 16 12 8 5 4 4 7 18 32 45 51 42 31 21 15 14 14 13 11 10 8 8 8
6 5 4 4 4 3 3 3 4 4 4 4 4 4 4 5 6 8 10 11 11 11 11 11 10 10 11 10 10 10 9 8 8 8 8 8 8 8 9 7 5 4 3 5 10 16 21 20 20 19 17 15 13 12 10 7 6 6 7 10 12 12 12 10 9 8 9 11 12 12 11 8 6 4 4 5 7 10 14 17 19 19 16 11 7 5 4 9 21 37 52 49 38 26 16 14 14 14 12 10 9 8 8
5 4 4 3 3 3 3 3 4 4 4 4 4 4 4 5 7 9 11 12 12 12 11 11 10 10 10 10 10 10 10 9 8 9 9 8 8 8 9 7 4 3 2 3 8 14 19 17 15 14 16 15 14 14 13 11 10 10 11 13 14 15 14 11 9 8 8 9 10 10 11 10 9 8 8 10 11 13 16 18 20 21 21 18 14 10 6 6 13 27 47 52 45 31 18 15 14 15 13 11 9 8 8
4 4 3 3 3 3 3 4 4 5 5 4 4 4 5 6 8 10 11 12 12 11 11 11 10 9 9 9 10 10 10 10 9 9 10 10 9 7 7 6 5 4 3 4 8 14 18 17 12 9 12 14 16 17 17 15 14 15 16 17 17 16 14 11 9 7 7 7 8 9 10 11 13 14 14 16 17 19 20 21 21 22 22 21 19 16 12 8 9 18 36 51 50 38 22 16 15 15 15 12 10 9 8
4 3 3 3 3 3 4 4 5 5 5 4 4 4 5 7 8 10 12 12 12 11 11 10 10 9 8 8 9 10 10 11 10 10 10 11 10 9 8 8 8 6 4 5 8 13 19 21 16 10 8 12 15 17 18 17 17 18 19 19 17 15 12 9 8 7 7 8 9 10 12 14 15 16 17 17 17 18 19 20 20 21 21 21 20 19 17 12 10 13 26 46 51 44 26 17 15 15 15 13 11 9 9
3 3 3 3 3 3 4 4 5 5 4 4 3 4 5 7 9 11 12 12 12 11 11 10 10 9 9 8 8 9 10 11 11 11 11 10 11 11 10 10 9 7 5 6 8 13 19 24 22 16 7 7 11 15 18 19 19 20 20 18 16 12 10 8 7 7 8 10 12 14 16 16 16 16 17 16 16 16 16 17 18 19 20 20 20 19 18 15 12 12 20 41 51 48 31 19 15 15 16 14 12 10 9
3 3 3 3 3 4 4 4 4 4 4 3 3 4 5 8 10 12 13 12 12 11 10 10 10 9 9 8 8 8 9 10 11 12 12 11 11 11 11 10 10 9 7 8 9 12 18 25 26 22 15 6 6 11 16 19 20 20 18 15 12 9 7 7 7 9 11 13 15 16 16 16 16 17 18 20 21 22 23 23 23 22 21 21 20 19 18 16 14 13 17 36 49 50 36 21 16 15 17 15 12 10 9
3 3 3 3 3 4 4 5 4 4 3 3 3 4 6 8 11 12 12 12 11 10 10 10 9 9 8 8 8 8 9 10 10 10 11 12 12 12 10 11 10 10 9 9 10 12 16 23 26 27 24 14 7 6 10 15 18 18 15 12 9 7 7 7 9 11 13 14 15 15 16 17 19 22 24 27 29 30 31 32 31 29 27 25 23 21 19 18 16 15 17 33 47 51 38 23 16 15 17 15 13 10 9
3 3 3 3 4 4 5 5 5 4 3 3 3 4 6 9 11 12 12 12 11 10 10 9 9 8 8 8 8 8 9 10 10 10 9 11 12 12 10 10 9 9 8 8 9 11 15 18 22 24 26 22 16 10 8 11 13 14 12 10 9 8 9 10 11 12 13 14 16 17 20 22 25 28 30 32 33 35 36 38 39 38 35 32 28 25 22 20 19 18 18 32 45 50 40 24 17 15 17 16 13 11 9
3 3 3 4 4 5 5 5 5 4 4 3 4 5 6 9 11 12 13 12 11 10 10 9 9 9 8 8 8 8 8 9 10 10 9 9 10 11 10 10 9 8 8 8 9 11 13 15 16 17 19 21 19 16 12 12 11 11 10 9 9 9 11 11 12 12 14 16 19 22 24 26 29 31 32 34 35 37 39 43 46 46 43 39 35 31 27 25 23 21 20 33 45 50 40 24 17 16 18 16 14 11 9
Height
5838 5838 5838 5838 5839 5839 5839 5840 5840 5840 5840 5840 5840 5840 5840 5840 5840 5840 5840 5840 5840 5840 5840 5840 5839 5839 5839 5839 5839 5839 5839 5839 5839 5839 5839 5839 5839 5839 5839 5839 5839 5839 5839 5839 5839 5839 5839 5839 5839 5839 5839 5838 5838 5838 5838 5837 5837 5837 5837 5837 5837 5837 5837 5837 5836 5836 5836 5836 5836 5837 5837 5837 5837 5837 5837 5837 5838 5839 5839 5841 5842 5843 5843 5842 5841 5842 5843 5843 5845 5846 5846 5846 5846 5846 5847 5848 5849 5849 5849 5850 5850 5851 5851
5836 5836 5836 5836 5836 5837 5837 5837 5837 5838 5838 5838 5838 5838 5838 5838 5838 5838 5838 5838 5838 5838 5838 5838 5838 5837 5837 5837 5837 5837 5837 5837 5836 5836 5836 5836 5836 5836 5837 5837 5837 5837 5837 5837 5837 5837 5837 5837 5837 5837 5836 5836 5836 5836 5836 5836 5836 5835 5835 5835 5835 5835 5835 5835 5834 5834 5834 5834 5834 5834 5834 5834 5834 5834 5835 5835 5835 5836 5837 5838 5839 5841 5841 5841 5841 5840 5840 5841 5842 5843 5844 5844 5843 5844 5844 5845 5846 5846 5847 5847 5848 5848 5849
5834 5834 5834 5834 5834 5835 5835 5835 5835 5836 5836 5836 5836 5836 5836 5836 5836 5836 5836 5836 5836 5836 5836 5836 5836 5836 5835 5835 5835 5835 5835 5835 5835 5835 5834 5834 5834 5834 5834 5834 5835 5835 5835 5835 5835 5835 5835 5835 5835 5835 5835 5835 5834 5834 5834 5834 5833 5833 5833 5833 5833 5833 5832 5832 5832 5832 5832 5832 5832 5832 5832 5832 5832 5832 5832 5832 5833 5833 5833 5835 5836 5837 5839 5839 5839 5839 5839 5839 5840 5840 5840 5841 5841 5841 5841 5842 5843 5844 5844 5845 5845 5846 5846
5831 5831 5832 5832 5832 5832 5832 5833 5833 5833 5833 5834 5834 5834 5834 5835 5834 5834 5834 5834 5834 5834 5834 5834 5834 5834 5833 5833 5833 5833 5833 5832 5832 5832 5832 5832 5832 5832 5832 5832 5832 5832 5832 5832 5833 5833 5833 5832 5832 5832 5832 5833 5832 5831 5832 5831 5831 5831 5831 5831 5831 5831 5830 5830 5830 5830 5830 5830 5829 5829 5829 5830 5830 5830 5830 5830 5830 5830 5831 5832 5833 5834 5835 5836 5837 5837 5837 5836 5836 5836 5836 5837 5838 5838 5839 5840 5841 5841 5841 5842 5843 5843 5844
5829 5829 5829 5830 5830 5830 5830 5831 5831 5831 5831 5831 5832 5832 5832 5832 5832 5832 5832 5832 5832 5832 5832 5832 5832 5831 5831 5831 5831 5831 5831 5831 5830 5830 5830 5830 5830 5830 5830 5830 5830 5830 5830 5830 5830 5831 5831 5830 5830 5830 5830 5830 5830 5829 5829 5829 5829 5829 5829 5829 5829 5828 5828 5828 5828 5827 5827 5827 5827 5827 5827 5827 5827 5827 5827 5827 5827 5828 5828 5829 5829 5830 5832 5832 5834 5835 5835 5835 5834 5833 5833 5834 5834 5835 5836 5837 5838 5839 5838 5840 5841 5841 5841
5826 5827 5827 5827 5827 5828 5828 5828 5828 5829 5829 5829 5829 5829 5829 5830 5830 5830 5830 5830 5830 5830 5830 5830 5830 5829 5829 5829 5829 5829 5828 5828 5828 5828 5828 5828 5827 5827 5828 5827 5827 5827 5827 5827 5827 5828 5828 5828 5827 5828 5828 5827 5827 5827 5827 5827 5827 5827 5826 5826 5826 5826 5826 5826 5826 5825 5825 5825 5825 5825 5825 5825 5825 5825 5825 5825 5825 5825 5826 5826 5826 5827 5828 5829 5830 5831 5833 5834 5833 5832 5831 5831 5831 5832 5833 5834 5835 5836 5836 5837 5838 5838 5839
5824 5824 5825 5825 5825 5825 5825 5826 5826 5826 5826 5826 5826 5827 5827 5827 5827 5827 5827 5827 5827 5827 5827 5827 5827 5827 5827 5827 5826 5826 5826 5826 5826 5826 5826 5825 5825 5825 5825 5825 5825 5825 5825 5825 5825 5825 5825 5825 5825 5825 5825 5825 5825 5824 5824 5824 5824 5824 5824 5824 5824 5824 5824 5823 5823 5823 5823 5823 5822 5822 5822 5822 5822 5822 5822 5823 5823 5823 5823 5823 5824 5824 5824 5826 5826 5828 5829 5831 5831 5831 5830 5830 5829 5829 5830 5831 5832 5833 5834 5835 5836 5836 5836
5822 5822 5822 5822 5822 5823 5823 5823 5823 5824 5824 5824 5824 5824 5824 5825 5825 5825 5825 5825 5825 5825 5825 5825 5825 5825 5825 5824 5824 5824 5824 5824 5823 5823 5823 5823 5823 5822 5822 5822 5822 5822 5822 5822 5822 5822 5822 5822 5822 5822 5822 5822 5822 5822 5821 5821 5821 5821 5822 5822 5822 5821 5821 5821 5821 5821 5821 5820 5820 5820 5820 5820 5820 5820 5820 5820 5820 5821 5821 5821 5821 5821 5822 5822 5823 5824 5825 5826 5828 5830 5830 5829 5827 5827 5828 5829 5830 5831 5831 5832 5833 5834 5834
5820 5820 5820 5820 5820 5820 5821 5821 5821 5821 5821 5821 5821 5822 5822 5822 5822 5822 5822 5822 5822 5822 5822 5822 5822 5822 5822 5822 5822 5821 5821 5821 5821 5821 5821 5821 5820 5820 5820 5820 5820 5820 5820 5820 5819 5819 5819 5819 5819 5819 5819 5819 5819 5819 5819 5819 5819 5819 5819 5819 5819 5819 5819 5819 5818 5818 5818 5818 5818 5818 5817 5817 5817 5817 5818 5818 5818 5818 5818 5818 5818 5819 5819 5820 5820 5820 5821 5822 5824 5826 5828 5828 5827 5826 5826 5826 5827 5828 5829 5830 5831 5831 5831
5817 5817 5817 5818 5818 5818 5818 5818 5818 5819 5819 5819 5819 5819 5819 5820 5820 5820 5820 5820 5820 5820 5820 5820 5820 5820 5820 5820 5819 5819 5819 5819 5819 5818 5818 5818 5818 5818 5817 5817 5817 5817 5817 5817 5816 5816 5816 5816 5816 5816 5816 5816 5816 5816 5816 5816 5816 5816 5816 5816 5816 5816 5816 5816 5816 5816 5816 5816 5815 5815 5815 5815 5815 5815 5815 5815 5816 5816 5816 5816 5816 5816 5816 5817 5817 5818 5818 5819 5821 5823 5825 5825 5824 5824 5824 5823 5823 5825 5826 5827 5828 5829 5829
5815 5815 5815 5815 5815 5816 5816 5816 5816 5816 5816 5816 5816 5817 5817 5817 5817 5817 5817 5817 5817 5817 5817 5817 5817 5817 5817 5817 5817 5816 5816 5816 5816 5816 5816 5815 5815 5815 5815 5815 5815 5815 5814 5814 5814 5814 5814 5814 5814 5814 5814 5813 5813 5813 5813 5813 5813 5813 5813 5813 5813 5813 5813 5813 5813 5813 5813 5813 5813 5813 5813 5813 5813 5812 5812 5813 5813 5813 5813 5813 5813 5813 5814 5814 5815 5815 5816 5816 5817 5819 5821 5820 5820 5821 5821 5821 5821 5822 5823 5824 5826 5826 5826
5812 5812 5812 5813 5813 5813 5813 5813 5813 5813 5814 5814 5814 5814 5814 5815 5815 5815 5815 5815 5815 5815 5815 5815 5815 5815 5814 5814 5814 5814 5814 5814 5813 5813 5813 5813 5812 5812 5812 5812 5812 5812 5811 5811 5811 5811 5811 5811 5811 5811 5811 5811 5810 5810 5810 5810 5810 5810 5810 5810 5810 5810 5811 5811 5811 5811 5811 5810 5810 5810 5810 5810 5810 5810 5810 5810 5810 5811 5811 5811 5811 5811 5811 5811 5812 5813 5813 5814 5814 5815 5816 5816 5817 5819 5820 5819 5819 5820 5820 5821 5823 5823 5824
5810 5810 5810 5810 5810 5810 5810 5811 5811 5811 5811 5811 5811 5811 5812 5812 5812 5812 5812 5812 5812 5812 5812 5812 5812 5812 5812 5811 5811 5811 5811 5811 5811 5811 5810 5810 5810 5810 5809 5809 5809 5809 5809 5808 5808 5808 5808 5808 5808 5808 5808 5807 5807 5807 5807 5807 5807 5807 5807 5807 5807 5807 5807 5808 5808 5808 5808 5808 5807 5807 5807 5807 5807 5808 5808 5808 5808 5808 5808 5808 5808 5809 5809 5809 5810 5810 5811 5812 5812 5813 5813 5814 5815 5816 5817 5817 5817 5817 5817 5818 5820 5820 5821
5807 5807 5807 5807 5807 5808 5808 5808 5808 5808 5808 5809 5809 5809 5809 5809 5809 5809 5809 5809 5809 5809 5809 5809 5809 5809 5809 5809 5809 5809 5808 5808 5808 5808 5807 5807 5807 5807 5806 5806 5806 5806 5806 5805 5805 5805 5805 5805 5805 5805 5805 5805 5804 5804 5804 5804 5804 5804 5803 5803 5804 5804 5804 5805 5805 5805 5805 5805 5805 5805 5805 5805 5805 5805 5805 5805 5805 5805 5806 5806 5806 5806 5806 5807 5807 5807 5808 5809 5810 5811 5811 5812 5814 5815 5814 5815 5815 5814 5814 5815 5816 5817 5817
5805 5805 5805 5805 5805 5805 5805 5805 5805 5806 5806 5806 5806 5806 5806 5806 5806 5807 5807 5807 5807 5807 5806 5806 5806 5806 5806 5806 5806 5806 5806 5806 5805 5805 5805 5805 5804 5804 5804 5803 5803 5803 5802 5802 5802 5802 5802 5801 5801 5801 5801 5801 5801 5801 5801 5801 5801 5801 5800 5800 5800 5801 5801 5801 5801 5802 5802 5802 5802 5802 5802 5802 5802 5802 5802 5802 5803 5803 5803 5803 5803 5804 5804 5804 5805 5805 5806 5806 5807 5808 5809 5813 5818 5819 5811 5811 5811 5811 5811 5813 5814 5814 5815
5802 5802 5802 5802 5802 5802 5802 5802 5802 5803 5803 5803 5803 5804 5804 5804 5804 5804 5804 5804 5804 5804 5804 5804 5804 5804 5803 5803 5803 5803 5803 5803 5802 5802 5802 5801 5801 5801 5801 5801 5800 5800 5800 5799 5799 5799 5798 5798 5798 5798 5798 5798 5798 5798 5798 5798 5798 5797 5797 5797 5797 5797 5797 5798 5798 5799 5799 5799 5799 5799 5799 5799 5799 5799 5800 5800 5800 5800 5800 5800 5801 5801 5801 5801 5802 5802 5803 5804 5805 5806 5807 5812 5818 5817 5810 5809 5809 5809 5809 5810 5811 5812 5812
5800 5800 5800 5800 5800 5800 5800 5800 5800 5800 5800 5801 5801 5801 5801 5801 5801 5801 5801 5801 5801 5801 5801 5801 5801 5801 5801 5801 5800 5800 5800 5800 5799 5799 5799 5799 5798 5798 5798 5797 5797 5797 5796 5796 5796 5796 5795 5795 5795 5795 5795 5795 5795 5795 5795 5795 5795 5794 5794 5794 5794 5794 5794 5794 5795 5795 5796 5796 5796 5796 5796 5796 5796 5796 5796 5797 5797 5797 5797 5798 5798 5798 5798 5799 5799 5800 5800 5801 5802 5803 5805 5807 5811 5812 5807 5806 5807 5807 5807 5807 5809 5810 5810
5798 5798 5797 5797 5797 5797 5797 5797 5797 5797 5798 5798 5798 5798 5798 5799 5799 5799 5799 5799 5799 5799 5798 5798 5798 5798 5798 5798 5797 5797 5797 5796 5796 5796 5796 5796 5795 5795 5795 5794 5794 5794 5793 5793 5793 5792 5792 5792 5792 5791 5791 5791 5791 5791 5791 5791 5791 5791 5791 5791 5791 5791 5791 5791 5791 5792 5792 5792 5793 5793 5792 5793 5793 5793 5793 5794 5794 5794 5795 5795 5795 5795 5796 5796 5796 5797 5797 5798 5799 5800 5801 5801 5803 5805 5804 5805 5804 5804 5805 5805 5806 5807 5808
5796 5795 5795 5795 5795 5795 5795 5795 5795 5795 5795 5795 5796 5796 5796 5796 5796 5796 5796 5796 5796 5796 5796 5796 5796 5795 5795 5795 5795 5794 5794 5794 5793 5793 5793 5792 5792 5792 5791 5791 5791 5791 5790 5790 5790 5789 5789 5789 5789 5788 5788 5788 5788 5788 5788 5788 5788 5788 5788 5788 5787 5787 5787 5787 5788 5788 5788 5789 5789 5789 5789 5790 5790 5790 5790 5790 5791 5791 5791 5792 5792 5792 5793 5793 5794 5794 5795 5795 5796 5797 5798 5798 5800 5801 5801 5801 5801 5801 5802 5802 5803 5805 5806
5793 5793 5793 5792 5792 5792 5792 5792 5792 5792 5792 5793 5793 5793 5793 5793 5793 5793 5793 5793 5793 5793 5793 5793 5793 5793 5792 5792 5792 5791 5791 5791 5790 5790 5790 5789 5789 5789 5788 5788 5788 5787 5787 5787 5786 5786 5786 5786 5786 5785 5785 5785 5785 5785 5785 5785 5785 5785 5785 5785 5784 5784 5784 5784 5784 5785 5785 5785 5786 5786 5786 5786 5786 5787 5787 5787 5787 5788 5788 5789 5789 5789 5790 5790 5791 5791 5791 5792 5793 5794 5794 5795 5796 5797 5798 5798 5798 5799 5799 5800 5801 5802 5804
5791 5790 5790 5790 5790 5790 5790 5790 5790 5790 5790 5790 5790 5790 5791 5791 5791 5791 5791 5791 5791 5791 5791 5790 5790 5790 5789 5789 5789 5788 5788 5788 5787 5787 5787 5786 5786 5786 5785 5785 5785 5784 5784 5784 5783 5783 5783 5782 5782 5782 5782 5781 5781 5781 5781 5781 5781 5781 5781 5781 5781 5781 5781 5781 5781 5781 5781 5781 5782 5782 5783 5783 5783 5783 5783 5784 5784 5784 5785 5785 5786 5786 5787 5787 5788 5788 5788 5789 5790 5790 5791 5792 5792 5793 5795 5795 5796 5796 5797 5797 5798 5799 5801
5788 5788 5788 5787 5787 5787 5787 5787 5787 5787 5787 5787 5788 5788 5788 5788 5788 5788 5788 5788 5788 5788 5788 5787 5787 5787 5786 5786 5786 5786 5785 5785 5784 5784 5784 5783 5783 5783 5782 5782 5782 5781 5781 5781 5781 5780 5780 5779 5779 5779 5778 5778 5778 5778 5778 5778 5778 5778 5778 5778 5778 5778 5778 5778 5777 5777 5778 5778 5778 5779 5779 5779 5780 5780 5780 5780 5781 5781 5781 5782 5782 5783 5783 5784 5784 5785 5785 5786 5786 5787 5788 5789 5789 5790 5791 5792 5792 5793 5794 5795 5795 5796 5798
5786 5786 5786 5785 5785 5785 5785 5785 5785 5785 5785 5785 5785 5785 5785 5785 5785 5785 5785 5785 5785 5785 5785 5785 5784 5784 5783 5783 5783 5782 5782 5782 5781 5781 5781 5781 5780 5780 5779 5779 5779 5778 5778 5778 5777 5777 5777 5776 5776 5776 5775 5775 5775 5775 5775 5775 5775 5775 5775 5775 5775 5774 5774 5774 5774 5774 5774 5774 5774 5775 5775 5776 5776 5776 5776 5776 5777 5777 5778 5778 5779 5779 5780 5781 5781 5781 5782 5782 5783 5784 5785 5786 5786 5787 5788 5789 5789 5790 5791 5792 5792 5793 5795
5783 5783 5783 5783 5783 5783 5783 5783 5783 5783 5783 5783 5783 5783 5783 5783 5783 5783 5783 5783 5782 5782 5782 5782 5781 5781 5781 5781 5780 5780 5779 5779 5779 5778 5778 5777 5777 5777 5776 5776 5776 5776 5775 5775 5774 5774 5774 5773 5773 5772 5772 5772 5771 5771 5771 5771 5771 5771 5771 5771 5771 5771 5771 5771 5771 5771 5771 5771 5771 5771 5771 5772 5772 5772 5773 5773 5773 5774 5774 5775 5775 5776 5776 5777 5777 5778 5779 5779 5780 5781 5781 5782 5783 5784 5785 5786 5786 5787 5788 5790 5790 5791 5792
5781 5781 5781 5781 5781 5781 5781 5781 5781 5781 5781 5781 5781 5781 5780 5780 5780 5780 5780 5780 5780 5780 5779 5779 5779 5778 5778 5778 5777 5777 5777 5776 5776 5776 5775 5775 5774 5774 5773 5773 5773 5772 5772 5772 5771 5771 5770 5770 5770 5769 5769 5768 5768 5768 5767 5767 5767 5767 5767 5767 5767 5767 5767 5767 5767 5767 5767 5767 5767 5767 5767 5768 5768 5768 5769 5769 5770 5770 5771 5771 5771 5772 5773 5773 5774 5775 5775 5776 5777 5777 5778 5779 5780 5781 5781 5782 5784 5785 5785 5786 5787 5789 5789
5779 5779 5779 5779 5779 5779 5779 5779 5779 5779 5779 5778 5778 5778 5778 5778 5778 5778 5778 5777 5777 5777 5777 5776 5776 5776 5776 5775 5775 5775 5774 5774 5773 5773 5772 5772 5771 5771 5771 5770 5770 5770 5769 5769 5768 5767 5767 5767 5766 5766 5766 5765 5765 5764 5764 5764 5764 5764 5764 5764 5764 5764 5764 5764 5764 5764 5763 5763 5763 5763 5763 5764 5764 5764 5765 5765 5766 5766 5766 5767 5768 5768 5769 5770 5770 5771 5772 5772 5773 5774 5775 5775 5776 5777 5778 5779 5780 5782 5783 5783 5784 5785 5786
5777 5777 5777 5777 5777 5777 5777 5777 5777 5777 5777 5776 5776 5776 5776 5776 5776 5776 5776 5775 5775 5775 5774 5774 5774 5774 5773 5773 5773 5772 5772 5771 5771 5770 5770 5769 5769 5768 5768 5767 5767 5766 5766 5766 5765 5764 5764 5763 5763 5762 5762 5762 5761 5761 5761 5760 5760 5760 5760 5760 5760 5760 5760 5760 5760 5760 5760 5760 5760 5760 5760 5760 5760 5760 5761 5761 5762 5762 5763 5763 5764 5764 5765 5766 5767 5767 5768 5769 5770 5770 5771 5772 5773 5774 5775 5776 5777 5778 5780 5781 5781 5781 5783
5775 5775 5775 5775 5775 5775 5775 5775 5775 5775 5775 5775 5775 5774 5774 5774 5774 5773 5773 5773 5773 5772 5772 5772 5771 5771 5771 5771 5770 5770 5769 5769 5768 5768 5767 5767 5766 5766 5765 5765 5764 5764 5763 5763 5762 5761 5761 5760 5760 5759 5759 5758 5758 5757 5757 5757 5756 5756 5756 5756 5756 5756 5756 5756 5756 5756 5756 5756 5756 5756 5756 5756 5756 5756 5757 5757 5758 5758 5759 5759 5760 5761 5761 5762 5763 5764 5764 5765 5766 5766 5767 5768 5769 5770 5771 5772 5773 5775 5776 5778 5778 5778 5780
5774 5774 5773 5773 5773 5773 5773 5773 5773 5773 5773 5773 5772 5772 5772 5772 5771 5771 5771 5771 5771 5770 5770 5770 5769 5769 5769 5768 5768 5767 5767 5766 5766 5765 5765 5764 5764 5763 5763 5762 5761 5761 5760 5760 5759 5758 5758 5757 5757 5756 5756 5755 5755 5754 5754 5753 5753 5753 5752 5752 5752 5752 5752 5752 5752 5752 5752 5752 5752 5752 5752 5752 5752 5752 5753 5753 5754 5754 5755 5755 5756 5756 5757 5758 5759 5760 5761 5761 5762 5763 5764 5765 5766 5767 5768 5769 5770 5771 5773 5775 5776 5776 5776
5772 5772 5772 5772 5771 5771 5771 5771 5771 5771 5771 5771 5771 5770 5770 5770 5769 5769 5769 5769 5768 5768 5768 5767 5767 5766 5766 5766 5765 5765 5764 5764 5763 5762 5762 5761 5761 5761 5760 5759 5758 5758 5757 5756 5756 5755 5755 5754 5754 5753 5752 5752 5751 5751 5751 5750 5750 5749 5749 5749 5748 5748 5748 5748 5748 5748 5748 5748 5748 5748 5748 5748 5748 5748 5749 5749 5749 5750 5751 5751 5752 5752 5753 5754 5755 5756 5756 5757 5758 5759 5760 5761 5762 5763 5764 5766 5767 5768 5769 5772 5773 5773 5773
5770 5770 5770 5770 5770 5770 5770 5770 5770 5769 5769 5769 5769 5768 5768 5768 5767 5767 5767 5766 5766 5766 5765 5765 5765 5764 5763 5763 5762 5762 5761 5761 5760 5760 5759 5759 5758 5758 5757 5756 5756 5755 5754 5753 5753 5752 5751 5751 5751 5750 5749 5749 5748 5748 5748 5747 5747 5746 5746 5745 5745 5745 5744 5744 5744 5744 5744 5744 5744 5744 5744 5744 5744 5744 5745 5745 5745 5746 5746 5747 5747 5748 5749 5749 5750 5751 5752 5753 5754 5755 5756 5757 5758 5760 5761 5762 5763 5765 5766 5768 5770 5770 5770
5769 5769 5768 5768 5768 5768 5768 5768 5768 5767 5767 5767 5767 5766 5766 5766 5765 5765 5765 5764 5764 5763 5763 5762 5762 5761 5761 5760 5760 5759 5759 5758 5757 5757 5756 5756 5755 5755 5754 5753 5753 5752 5751 5750 5750 5749 5748 5748 5747 5746 5746 5746 5745 5745 5744 5744 5743 5743 5742 5742 5741 5741 5741 5740 5740 5740 5740 5740 5740 5740 5740 5740 5740 5740 5741 5741 5741 5741 5742 5742 5743 5744 5744 5745 5746 5747 5748 5749 5750 5751 5752 5753 5754 5756 5757 5758 5760 5761 5762 5764 5766 5767 5766
5767 5767 5767 5767 5767 5766 5766 5766 5766 5766 5766 5765 5765 5764 5764 5764 5763 5763 5762 5762 5762 5761 5761 5760 5759 5759 5758 5757 5757 5756 5756 5756 5755 5754 5753 5753 5752 5751 5751 5750 5750 5749 5748 5747 5747 5746 5745 5745 5744 5743 5743 5742 5742 5741 5741 5741 5740 5739 5739 5738 5737 5737 5737 5736 5736 5736 5736 5736 5735 5735 5735 5735 5736 5736 5736 5736 5736 5737 5737 5738 5739 5739 5740 5741 5741 5742 5743 5745 5746 5746 5748 5749 5750 5751 5753 5754 5756 5757 5759 5760 5762 5763 5764
5766 5766 5765 5765 5765 5765 5765 5765 5764 5764 5764 5763 5763 5763 5762 5762 5761 5761 5761 5760 5759 5759 5758 5757 5757 5756 5756 5755 5754 5754 5753 5753 5752 5751 5751 5750 5749 5748 5748 5747 5746 5746 5745 5744 5744 5743 5742 5741 5741 5740 5740 5739 5739 5738 5738 5737 5736 5736 5735 5734 5734 5733 5733 5732 5732 5731 5731 5731 5731 5731 5731 5731 5731 5731 5731 5731 5732 5732 5733 5733 5734 5735 5736 5736 5737 5738 5739 5740 5741 5742 5743 5745 5746 5747 5749 5751 5752 5753 5755 5756 5758 5760 5761
5764 5764 5764 5764 5763 5763 5763 5763 5762 5762 5762 5761 5761 5761 5760 5760 5759 5759 5758 5758 5757 5756 5756 5755 5754 5754 5753 5753 5752 5751 5751 5750 5750 5749 5748 5747 5746 5745 5745 5744 5743 5743 5742 5741 5741 5740 5739 5739 5738 5737 5737 5736 5736 5735 5734 5734 5733 5732 5731 5731 5730 5730 5729 5728 5728 5727 5726 5726 5726 5726 5726 5726 5726 5726 5726 5726 5726 5727 5728 5728 5729 5730 5731 5732 5732 5733 5734 5735 5736 5738 5739 5740 5741 5743 5745 5746 5748 5750 5751 5752 5754 5756 5758
5762 5762 5762 5762 5762 5761 5761 5761 5761 5761 5760 5760 5759 5759 5758 5758 5757 5757 5756 5756 5755 5754 5754 5753 5752 5752 5751 5750 5750 5749 5748 5748 5747 5746 5745 5744 5743 5742 5742 5741 5741 5740 5739 5739 5738 5737 5736 5736 5735 5734 5734 5733 5732 5731 5731 5730 5729 5728 5728 5727 5726 5725 5725 5724 5723 5722 5722 5721 5721 5721 5720 5720 5720 5720 5721 5721 5721 5722 5722 5723 5724 5725 5726 5727 5728 5729 5730 5731 5732 5733 5734 5736 5737 5738 5740 5742 5744 5746 5747 5749 5750 5752 5754
5761 5761 5761 5760 5760 5760 5760 5759 5759 5759 5758 5758 5757 5757 5757 5756 5756 5755 5754 5753 5753 5752 5751 5751 5750 5750 5749 5748 5747 5747 5746 5746 5745 5744 5743 5741 5741 5740 5739 5739 5738 5737 5736 5736 5735 5734 5733 5733 5732 5731 5731 5730 5729 5728 5727 5726 5725 5724 5723 5723 5722 5721 5720 5719 5718 5717 5717 5716 5716 5715 5715 5715 5715 5715 5715 5715 5716 5716 5717 5717 5718 5719 5720 5721 5723 5724 5725 5726 5727 5728 5729 5731 5732 5734 5735 5737 5739 5741 5743 5745 5746 5748 5750
5759 5759 5759 5759 5758 5758 5758 5758 5757 5757 5757 5756 5756 5755 5755 5754 5754 5753 5752 5751 5751 5750 5750 5749 5748 5747 5747 5746 5745 5745 5744 5743 5742 5741 5740 5739 5738 5737 5736 5736 5735 5735 5734 5733 5732 5731 5731 5730 5729 5728 5727 5726 5725 5724 5723 5722 5721 5720 5719 5718 5717 5716 5715 5714 5713 5712 5711 5711 5710 5709 5709 5709 5709 5709 5709 5709 5710 5710 5711 5711 5712 5713 5715 5716 5717 5718 5720 5721 5722 5723 5725 5726 5727 5729 5731 5733 5735 5737 5739 5741 5742 5744 5746
5757 5757 5757 5757 5756 5756 5756 5756 5756 5755 5755 5755 5754 5754 5753 5752 5751 5751 5750 5750 5749 5748 5748 5747 5746 5745 5744 5744 5743 5742 5741 5741 5740 5739 5738 5736 5736 5735 5734 5733 5732 5732 5731 5730 5729 5728 5727 5726 5726 5725 5723 5722 5721 5720 5719 5718 5717 5716 5715 5714 5713 5712 5711 5710 5708 5707 5706 5706 5705 5704 5703 5703 5703 5702 5703 5703 5703 5704 5704 5705 5706 5707 5708 5710 5711 5713 5714 5716 5717 5718 5720 5721 5722 5724 5726 5728 5730 5732 5735 5737 5738 5740 5742
5756 5756 5756 5755 5755 5755 5754 5754 5754 5754 5753 5753 5752 5752 5751 5751 5750 5749 5748 5747 5747 5746 5746 5745 5744 5743 5742 5741 5741 5740 5739 5738 5737 5736 5735 5734 5733 5732 5731 5731 5730 5729 5728 5727 5726 5725 5724 5723 5722 5721 5720 5719 5718 5716 5715 5714 5713 5712 5711 5710 5709 5708 5707 5706 5704 5703 5702 5701 5700 5699 5698 5697 5697 5696 5696 5697 5697 5697 5698 5699 5700 5701 5702 5703 5705 5706 5708 5710 5711 5713 5714 5716 5717 5719 5721 5723 5725 5728 5730 5732 5734 5736 5738
5754 5754 5754 5753 5753 5753 5753 5752 5752 5752 5752 5751 5751 5750 5750 5749 5748 5747 5746 5746 5745 5744 5743 5743 5742 5741 5740 5739 5739 5738 5737 5736 5735 5734 5733 5732 5731 5730 5729 5728 5727 5726 5725 5724 5723 5722 5721 5720 5719 5718 5716 5715 5714 5713 5712 5711 5710 5709 5708 5707 5706 5704 5703 5702 5701 5699 5698 5696 5695 5694 5693 5692 5691 5691 5691 5691 5691 5691 5691 5692 5693 5694 5695 5696 5698 5700 5702 5704 5706 5707 5709 5711 5712 5714 5716 5718 5720 5723 5726 5728 5730 5732 5734
5752 5752 5752 5752 5751 5751 5751 5751 5751 5751 5750 5750 5749 5748 5748 5747 5746 5745 5744 5743 5743 5742 5741 5741 5740 5739 5738 5737 5736 5736 5735 5734 5733 5732 5731 5730 5729 5727 5726 5725 5724 5723 5722 5721 5720 5719 5718 5717 5716 5714 5713 5712 5711 5710 5709 5708 5707 5706 5705 5704 5702 5701 5700 5698 5697 5696 5694 5693 5691 5690 5689 5688 5686 5686 5686 5685 5685 5685 5685 5686 5686 5687 5688 5689 5691 5693 5695 5697 5699 5701 5703 5705 5707 5708 5710 5712 5715 5718 5721 5723 5726 5728 5730
5751 5751 5751 5750 5750 5750 5749 5749 5749 5749 5748 5748 5747 5747 5746 5745 5744 5743 5742 5741 5741 5740 5739 5738 5737 5737 5736 5736 5735 5734 5733 5732 5731 5730 5728 5727 5726 5725 5724 5723 5721 5721 5719 5718 5717 5716 5715 5714 5712 5711 5710 5709 5708 5707 5706 5705 5704 5703 5702 5701 5699 5698 5696 5695 5694 5692 5691 5689 5688 5686 5685 5684 5683 5681 5681 5680 5680 5680 5680 5680 5680 5680 5681 5682 5683 5686 5688 5690 5693 5695 5697 5700 5701 5703 5705 5707 5710 5713 5716 5719 5722 5724 5726
5749 5749 5749 5749 5748 5748 5748 5748 5747 5747 5746 5746 5746 5745 5744 5743 5742 5741 5741 5740 5739 5738 5737 5736 5735 5735 5734 5733 5733 5732 5731 5730 5729 5727 5726 5725 5724 5723 5721 5720 5719 5718 5716 5716 5714 5713 5712 5711 5710 5708 5707 5706 5705 5704 5703 5702 5701 5700 5699 5697 5696 5695 5693 5692 5690 5689 5687 5686 5685 5683 5682 5680 5679 5677 5677 5676 5676 5675 5675 5674 5674 5674 5674 5675 5676 5678 5680 5683 5686 5689 5691 5694 5696 5697 5699 5702 5704 5707 5711 5714 5717 5720 5723
5748 5747 5747 5747 5746 5746 5746 5746 5746 5745 5745 5744 5744 5743 5742 5741 5741 5740 5739 5738 5737 5736 5735 5734 5733 5732 5731 5731 5730 5730 5729 5727 5726 5725 5724 5723 5721 5720 5719 5717 5716 5715 5714 5713 5711 5710 5709 5708 5706 5705 5704 5703 5702 5701 5700 5699 5698 5696 5695 5694 5692 5691 5690 5688 5686 5685 5684 5682 5681 5680 5678 5676 5675 5673 5672 5671 5671 5671 5670 5669 5668 5668 5668 5669 5670 5671 5673 5676 5678 5681 5684 5687 5690 5692 5694 5696 5699 5702 5706 5709 5712 5715 5718
5746 5746 5746 5745 5745 5745 5745 5744 5744 5744 5743 5742 5742 5741 5741 5740 5739 5738 5737 5736 5735 5734 5733 5732 5731 5730 5729 5728 5728 5727 5726 5725 5724 5723 5722 5721 5719 5718 5716 5715 5714 5712 5711 5710 5709 5707 5706 5705 5704 5702 5701 5700 5699 5698 5697 5696 5695 5693 5691 5690 5689 5687 5686 5684 5683 5681 5680 5678 5677 5675 5674 5672 5670 5669 5667 5667 5666 5666 5665 5664 5663 5663 5662 5663 5663 5664 5666 5668 5671 5674 5677 5680 5683 5686 5688 5691 5693 5697 5700 5704 5707 5711 5713
5744 5744 5744 5744 5743 5743 5743 5743 5742 5742 5741 5741 5740 5739 5739 5738 5737 5736 5735 5734 5733 5732 5731 5730 5729 5728 5727 5726 5726 5725 5724 5723 5722 5721 5720 5718 5717 5716 5714 5712 5711 5710 5708 5707 5706 5704 5703 5702 5701 5699 5698 5697 5696 5695 5694 5692 5691 5690 5688 5686 5685 5683 5681 5679 5678 5676 5675 5673 5672 5671 5669 5667 5665 5664 5663 5662 5661 5661 5660 5659 5659 5658 5657 5657 5657 5658 5659 5661 5664 5667 5671 5674 5676 5680 5683 5685 5688 5691 5695 5699 5702 5706 5708
5743 5742 5742 5742 5742 5742 5741 5741 5741 5740 5739 5739 5738 5738 5737 5736 5735 5734 5733 5732 5731 5730 5729 5728 5727 5726 5725 5724 5723 5722 5721 5720 5719 5718 5717 5716 5714 5713 5711 5710 5708 5707 5706 5704 5703 5701 5700 5699 5698 5696 5695 5694 5693 5691 5690 5689 5688 5686 5685 5683 5681 5678 5676 5674 5673 5671 5670 5668 5667 5666 5664 5662 5661 5659 5658 5657 5656 5656 5655 5654 5654 5653 5652 5652 5652 5652 5653 5654 5656 5659 5663 5667 5670 5673 5677 5680 5683 5686 5690 5694 5697 5701 5704
5741 5741 5741 5741 5741 5740 5740 5739 5739 5738 5737 5737 5736 5736 5735 5734 5733 5732 5731 5730 5729 5728 5727 5726 5725 5724 5723 5722 5721 5720 5719 5718 5717 5716 5715 5714 5712 5711 5709 5708 5706 5704 5703 5701 5700 5698 5697 5696 5695 5694 5692 5691 5690 5688 5687 5686 5684 5682 5681 5679 5676 5674 5672 5670 5668 5666 5665 5663 5662 5661 5659 5658 5656 5655 5653 5652 5651 5650 5650 5649 5649 5648 5647 5647 5646 5646 5647 5648 5650 5652 5656 5659 5663 5667 5671 5674 5677 5681 5685 5689 5692 5696 5700
5740 5740 5739 5739 5739 5738 5738 5737 5737 5736 5736 5735 5735 5734 5733 5732 5731 5730 5729 5728 5727 5726 5725 5724 5723 5722 5721 5719 5719 5718 5717 5716 5714 5713 5712 5711 5710 5709 5708 5706 5704 5702 5700 5699 5697 5696 5694 5693 5692 5691 5689 5688 5686 5685 5683 5682 5681 5679 5677 5675 5672 5670 5668 5666 5664 5662 5660 5659 5657 5656 5655 5653 5652 5650 5649 5647 5646 5645 5644 5644 5643 5643 5642 5642 5641 5641 5641 5642 5643 5646 5648 5652 5656 5660 5665 5668 5672 5676 5679 5683 5687 5691 5695
5738 5738 5738 5737 5737 5736 5736 5736 5735 5735 5734 5733 5733 5732 5731 5730 5729 5728 5727 5726 5725 5724 5723 5722 5721 5720 5718 5717 5716 5715 5714 5713 5712 5711 5710 5709 5708 5707 5706 5705 5703 5701 5699 5697 5695 5693 5691 5690 5689 5687 5686 5685 5683 5682 5680 5679 5677 5675 5673 5671 5668 5666 5664 5661 5660 5658 5656 5654 5653 5651 5650 5648 5647 5646 5644 5643 5641 5640 5639 5638 5638 5637 5637 5636 5636 5636 5636 5637 5638 5639 5641 5645 5649 5653 5658 5662 5666 5670 5674 5678 5683 5687 5691
5736 5736 5736 5736 5735 5735 5734 5734 5733 5733 5732 5731 5731 5730 5729 5728 5727 5726 5725 5724 5723 5722 5721 5720 5719 5717 5716 5715 5714 5713 5712 5711 5710 5709 5707 5706 5705 5704 5703 5702 5702 5701 5700 5697 5694 5692 5690 5688 5686 5685 5683 5682 5681 5679 5677 5676 5674 5672 5669 5667 5664 5662 5660 5657 5655 5653 5652 5650 5648 5646 5645 5643 5642 5641 5639 5638 5636 5635 5633 5632 5631 5631 5631 5631 5631 5631 5631 5631 5632 5633 5635 5638 5642 5646 5651 5656 5660 5665 5669 5673 5678 5682 5686
5735 5735 5734 5734 5734 5733 5733 5732 5731 5731 5730 5730 5729 5728 5727 5726 5726 5725 5723 5722 5721 5721 5719 5719 5717 5716 5714 5713 5712 5710 5709 5708 5707 5706 5705 5704 5703 5702 5701 5700 5699 5698 5697 5696 5695 5693 5690 5687 5685 5682 5681 5679 5678 5676 5675 5673 5671 5668 5666 5663 5661 5658 5656 5653 5651 5649 5647 5645 5643 5642 5640 5638 5636 5635 5633 5632 5630 5629 5627 5626 5625 5624 5624 5624 5625 5625 5625 5626 5626 5627 5629 5631 5635 5640 5645 5650 5655 5659 5664 5669 5673 5678 5682
5733 5733 5732 5732 5732 5731 5731 5731 5730 5729 5728 5728 5727 5726 5726 5725 5724 5723 5722 5721 5720 5718 5717 5716 5716 5714 5712 5711 5710 5708 5707 5706 5705 5703 5702 5701 5700 5699 5699 5698 5697 5696 5694 5693 5692 5691 5690 5688 5685 5681 5679 5677 5675 5674 5671 5669 5667 5665 5662 5659 5657 5654 5652 5649 5646 5644 5642 5640 5638 5636 5635 5633 5631 5629 5627 5625 5623 5622 5621 5619 5618 5617 5617 5617 5618 5618 5619 5620 5621 5621 5623 5625 5628 5633 5638 5643 5649 5654 5659 5664 5669 5673 5678
5731 5731 5731 5731 5730 5730 5729 5729 5728 5727 5727 5726 5725 5725 5724 5723 5722 5721 5720 5719 5718 5716 5716 5715 5714 5713 5711 5709 5708 5706 5705 5704 5702 5701 5700 5699 5698 5696 5696 5695 5694 5693 5692 5691 5689 5688 5686 5685 5684 5681 5678 5675 5673 5671 5668 5666 5664 5661 5658 5656 5653 5651 5648 5645 5642 5640 5638 5635 5633 5631 5629 5626 5624 5622 5620 5618 5616 5615 5613 5611 5611 5610 5610 5610 5611 5611 5612 5613 5614 5616 5617 5619 5622 5627 5632 5638 5643 5649 5654 5659 5664 5669 5674
5729 5729 5729 5729 5729 5728 5728 5727 5726 5726 5725 5724 5723 5723 5722 5721 5720 5719 5718 5717 5716 5715 5714 5713 5712 5711 5709 5708 5706 5705 5703 5702 5701 5699 5698 5696 5695 5694 5693 5691 5691 5689 5688 5687 5686 5685 5683 5681 5681 5680 5677 5674 5670 5667 5665 5663 5661 5658 5655 5652 5650 5647 5644 5641 5639 5636 5633 5631 5628 5625 5623 5620 5617 5615 5613 5611 5609 5607 5605 5604 5603 5602 5602 5602 5603 5604 5605 5606 5608 5610 5611 5613 5616 5621 5626 5632 5638 5644 5649 5654 5660 5665 5670
5728 5728 5727 5727 5727 5726 5726 5726 5725 5724 5723 5722 5722 5721 5720 5719 5718 5717 5716 5715 5714 5713 5712 5711 5710 5709 5707 5706 5705 5703 5702 5700 5699 5697 5696 5694 5693 5691 5690 5689 5687 5686 5684 5683 5682 5681 5680 5678 5677 5676 5675 5673 5668 5664 5661 5660 5658 5655 5652 5649 5647 5644 5641 5638 5635 5632 5630 5627 5623 5620 5617 5614 5611 5607 5605 5602 5600 5599 5597 5596 5594 5594 5593 5594 5595 5596 5598 5600 5601 5603 5605 5607 5610 5615 5620 5626 5632 5638 5644 5650 5655 5661 5666
5726 5726 5726 5726 5725 5725 5724 5724 5723 5722 5722 5721 5720 5719 5718 5717 5716 5716 5714 5713 5712 5711 5710 5709 5708 5707 5705 5704 5703 5701 5700 5698 5697 5696 5694 5692 5691 5690 5688 5687 5685 5684 5682 5681 5679 5677 5676 5675 5674 5673 5671 5671 5668 5663 5659 5656 5654 5652 5650 5647 5644 5641 5638 5636 5632 5629 5626 5622 5619 5615 5611 5607 5603 5599 5596 5593 5591 5589 5588 5586 5585 5584 5584 5585 5586 5588 5590 5592 5594 5597 5599 5601 5605 5609 5614 5620 5627 5633 5639 5645 5651 5656 5662
5724 5724 5724 5724 5723 5723 5722 5722 5721 5721 5720 5719 5718 5717 5717 5716 5715 5714 5712 5711 5710 5709 5708 5707 5706 5705 5704 5702 5701 5700 5698 5697 5695 5694 5692 5691 5689 5688 5686 5685 5683 5682 5680 5678 5676 5675 5673 5671 5670 5669 5668 5667 5665 5663 5659 5655 5651 5649 5647 5644 5641 5639 5636 5633 5629 5626 5622 5618 5613 5609 5604 5599 5595 5591 5586 5583 5580 5578 5577 5576 5575 5574 5574 5575 5577 5579 5581 5584 5587 5590 5593 5596 5599 5603 5609 5615 5622 5628 5635 5641 5647 5653 5658
5723 5723 5722 5722 5722 5721 5721 5720 5720 5719 5718 5717 5717 5716 5715 5714 5713 5712 5711 5710 5708 5707 5706 5705 5704 5703 5701 5701 5699 5698 5696 5695 5693 5692 5691 5689 5688 5686 5685 5683 5682 5680 5678 5676 5675 5672 5670 5668 5666 5665 5664 5662 5661 5660 5658 5655 5651 5648 5645 5642 5639 5636 5633 5629 5626 5622 5617 5612 5607 5602 5597 5592 5587 5582 5577 5574 5571 5568 5566 5565 5564 5564 5564 5565 5567 5570 5573 5577 5580 5583 5586 5590 5593 5598 5603 5611 5617 5624 5630 5636 5643 5649 5655
5721 5721 5721 5721 5720 5720 5719 5719 5718 5717 5716 5716 5715 5714 5713 5712 5711 5710 5709 5708 5707 5706 5704 5703 5702 5701 5700 5699 5697 5696 5695 5693 5691 5690 5689 5687 5686 5685 5683 5682 5680 5678 5676 5675 5672 5670 5668 5666 5664 5662 5660 5658 5657 5656 5655 5653 5650 5647 5644 5640 5636 5633 5629 5626 5622 5617 5612 5606 5601 5596 5591 5585 5580 5574 5570 5565 5561 5558 5556 5555 5554 5554 5554 5556 5558 5562 5566 5570 5573 5577 5581 5584 5588 5593 5599 5606 5613 5620 5626 5632 5639 5646 5651